STARLINK-32915, 63152

Orbit data source: Space-Track

STARLINK-32915, 63152 is a payload satellite owned by SpaceX/Seattle (US) in LEO that was launched on Mon, 03 Mar 2025 UTC via an FALCON 9 launch vehicle from the Air Force Eastern Test Range (AFETR). Payload-class satellites include a variety of spacecraft equipped with specific instruments for various scientific and technological missions. These include communications satellites like Starlink; space stations such as the ISS; scientific satellites like the Hubble; Earth observation satellites from companies like Planet Labs, Umbra, and HawkEye 360; GPS; miniature CubeSats for education and research; and military/defense satellites.

Loading next visibility...
Identifier
63152, 2025-043W
Orbit
LEO
Last TLE update
1 day ago
Origin
Manufacturer
SpaceX/Seattle
Mission
Operational Commercial Communications
Bus & Motor
STARLINK V2M, Unknown motor
Mass
730 kg wet, ~700 kg dry
Launch date (UTC)
2025-03-03 (2 months ago)
Launch vehicle
FALCON 9
Launch site
Air Force Eastern Test Range (AFETR)
Object type
Payload
Rocket body
Debris
Shape & HBR
Box + 2 Pan, 29 m
Radar Cross Section
33.884 m², Large (>1 m²)

Expand to show TLE details & history

TLE from 1 day ago
0 STARLINK-32915
1 63152U 25043W   25128.20833437  .00000182  00000-0  16118-4 0  9991
2 63152  43.0011 308.2453 0001019 269.2077  90.8658 15.27573625 11187
Epoch: 2025-05-08T05:00Z
Definitive object data (Epoch: 2025-05-08T05:00:00.089Z)
Latitude
-0.00001°
Longitude
6.96279°
Altitude
482.854 km
Speed
7.626 km/s
True Right ascension
20h 32m 58s
True Declination
0° 00' 00"
Sunlit
Object was in daylight at TLE epoch
Visualization TLE readout
Latitude
42.85858°
Longitude
82.66719°
Altitude
486.835 km
Speed
7.627 km/s
Apparent Right ascension
02h 06m 05s
Apparent Declination
3° 20' 55"
Sunlit
Object is in daylight
Visualization observer readout
Local Sidereal Time
14:37:16
Azimuth
11.269° NNE
Elevation
-46.147°
Doppler factor
1
Orbital elements
Apogee altitude
485.713 km
Perigee altitude
484.314 km
Semi-major axis
6,863.15 km
Eccentricity
0.0001019
Inclination
43.0011°
RAAN
308.2453°
Arg. of periapsis
269.2077°
True anomaly
90.87748°
Mean anomaly
90.8658°
Eccentric anomaly
90.87164°
Mean motion
3.81731 °/min
BSTAR
0.000016118
Orbital period
94.31 mins
Loading maneuver chart data...
Loading SW <> Apogee altitude chart data...
Loading historical data...
Loading historical data...
Loading historical data...
Loading historical data...
Loading historical data...
Loading historical data...
Loading historical data...

STARLINK-32915 Visibility forecast

Observer location: undefined°, undefined°

Span
Click to sort rows by Start time (UTC) header in descending order
Start Az.
Max El. time (UTC)
Max El. Az.
Max El.
End time (UTC)
End Az.
4 mins2025-05-09 14:08:26.030Z180.928° SSW2025-05-09 14:10:26.030Z144.486° SSE17.215°2025-05-09 14:12:26.030Z107.402° ESE
6 mins2025-05-09 15:46:26.030Z242.981° WSW2025-05-09 15:49:26.030Z101.015° ESE42.542°2025-05-09 15:52:26.030Z73.63° E
5 mins2025-05-09 17:26:26.030Z292.436° WNW2025-05-09 17:28:26.030Z17.057° NNE37.652°2025-05-09 17:31:26.030Z73.044° E
5 mins2025-05-09 19:05:26.030Z294.706° NW2025-05-09 19:07:26.030Z32.77° NE43.443°2025-05-09 19:10:26.030Z98.515° ESE
5 mins2025-05-09 20:44:26.030Z257.19° W2025-05-09 20:46:26.030Z199.272° SSW28.012°2025-05-09 20:49:26.030Z146.382° SSE
|